Retour au catalogue

STARLINK-34823

ActifCommunicationsVLEO
NORAD 65355·PAYLOAD·🇺🇸 United States

Lancé Aug 28, 2025 depuis Cape Canaveral Space Force Station

Loading…

Prochains Passages (prochaines 24 heures)

TLE

FraisSource: CelesTrak SupGP

Époque: Sep 14, 2026, 22:42 UTC

1 65355C 25190E   26257.94631944 -.00011859  00000+0 -35049-3 0  2579
2 65355  53.1601   7.7983 0001197  84.4962 133.1037 15.34386053    14

Suivez STARLINK-34823 en temps réel avec AllMySat

Download on the App Store